Regional Weather Roundup
Issued by NWS

Home | Current Version | Previous Version | Text Only | Print | Product List | Glossary Off
Versions: 1 2 3 4 5 6 7 8 9 10 11 12 13 14 15 16 17 18 19 20 21 22 23 24 25 26 27 28 29 30 31 32 33 34 35 36 37 38 39 40 41 42 43 44 45 46 47 48 49 50

000
ASUS45 KBOI 270910
RWRID

IDAHO REGIONAL WEATHER ROUNDUP
NATIONAL WEATHER SERVICE BOISE ID
300 AM MDT SAT AUG 27 2016

NOTE: "FAIR" INDICATES FEW OR NO CLOUDS BELOW 12000 FEET
WITH NO SIGNIFICANT WEATHER AND/OR OBSTRUCTIONS TO VISIBILITY

IDZ012-014-271000-
SOUTHWEST IDAHO


CITY           SKY/WX    TMP DP  RH WIND       PRES   REMARKS
BOISE          CLEAR     62  33  33 SE7       29.91S
CALDWELL       CLEAR     53  45  74 E5        29.90S
MOUNTAIN HOME  CLEAR     54  32  44 E3        29.92S
$$

IDZ016-017-271000-
SOUTHCENTRAL IDAHO


CITY           SKY/WX    TMP DP  RH WIND       PRES   REMARKS
BURLEY         CLEAR     56  36  47 SW9       29.98S
JEROME         CLEAR     55  36  48 E7        29.99S
TWIN FALLS     CLEAR     59  31  34 S12       29.98F
$$

IDZ019>023-271000-
SOUTHEAST IDAHO


CITY           SKY/WX    TMP DP  RH WIND       PRES   REMARKS
IDAHO FALLS    CLEAR     48  35  60 SW7       30.02R
POCATELLO      CLEAR     53  32  44 CALM      30.01S
REXBURG        CLEAR     49  35  58 N5        30.02R
$$

IDZ006-010-011-018-031-032-271000-
CENTRAL IDAHO MOUNTAINS


CITY           SKY/WX    TMP DP  RH WIND       PRES   REMARKS
MCCALL         CLEAR     46  30  53 CALM      30.03F
HAILEY         CLEAR     52  34  50 NW10      30.05S
STANLEY          N/A     37  27  67 CALM      30.14S
SALMON         MOCLDY   N/A N/A N/A MISG      30.00S
CHALLIS        PTCLDY    51  26  37 CALM      30.03S
$$

IDZ002-004-006-007-026-271000-
NORTHERN IDAHO


CITY           SKY/WX    TMP DP  RH WIND       PRES   REMARKS
LEWISTON       PTCLDY    69  38  32 CALM      29.81S
LOWELL           N/A     55  45  68 CALM      29.91S
COEUR D`ALENE  CLOUDY    66  46  48 SE8       29.79F
MULLAN PASS    MOCLDY    57  33  40 W6        30.01F
$$



USA.gov is the U.S. government's official web portal to all federal, state and local government web resources and services.